Regional Weather Roundup
Issued by NWS

Home | Current Version | Previous Version | Graphics & Text | Print | Product List | Glossary On
Versions: 1 2 3 4 5 6 7 8 9 10 11 12 13 14 15 16 17 18 19 20 21 22 23 24 25 26 27 28 29 30 31 32 33 34 35 36 37 38 39 40 41 42 43 44 45 46 47 48 49 50
000
ASUS43 KLMK 230410
RWRKY
KENTUCKY REGIONAL WEATHER ROUNDUP
NATIONAL WEATHER SERVICE LOUISVILLE KY
1200 AM EDT WED MAY 23 2018

NOTE "FAIR" INDICATES FEW OR NO CLOUDS BELOW 12,000 FEET
WITH NO SIGNIFICANT WEATHER AND/OR OBSTRUCTIONS TO VISIBILITY.

KYZ001>023-026-027-061>063-070>075-230500-
WESTERN AND SOUTH CENTRAL KENTUCKY

CITY           SKY/WX    TMP DP  RH WIND       PRES   REMARKS
PADUCAH        FAIR      73  68  84 W3        30.03R
HENDERSON      NOT AVBL
OWENSBORO      FAIR      75  70  84 CALM      30.02R
HOPKINSVILLE   FAIR      71  71  98 SW6       30.04R
BOWLING GREEN  FAIR      71  69  93 S5        30.04S
GLASGOW        FAIR      66  64  95 CALM      30.05S FOG
$$

KYZ024-025-028>034-038-045-046-053-230500-
NORTH CENTRAL KENTUCKY

CITY           SKY/WX    TMP DP  RH WIND       PRES   REMARKS
LOUISVILLE/SDF MOCLDY    77  71  82 SW6       30.02R
LOUISVILLE/LOU MOCLDY    77  72  84 SW7       30.03R
FORT KNOX      FAIR      71  71 100 SW5       30.04R
$$

KYZ035>037-039>044-047>052-055>060-089>105-230500-
NORTHEAST KENTUCKY

CITY           SKY/WX    TMP DP  RH WIND       PRES   REMARKS
LEXINGTON      MOCLDY    71  65  81 NW7       30.05R
COVINGTON      MOCLDY    72  64  76 NW8       30.03R
FRANKFORT      FAIR      68  63  84 W6        30.02R
$$

KYZ054-064>069-076>088-106>120-230500-
SOUTHEAST KENTUCKY

CITY           SKY/WX    TMP DP  RH WIND       PRES   REMARKS
JACKSON        FAIR      68  66  93 CALM      30.06R
LONDON         FOG       64  64 100 CALM      30.07S VSB 1/2
SOMERSET       NOT AVBL
MIDDLESBORO    FAIR      65  65 100 CALM      30.09S
MONTICELLO     FAIR      64  63  96 W10       30.09R FOG
$$




USA.gov is the U.S. government's official web portal to all federal, state and local government web resources and services.